sat.trackr.live / text

‹ back to catalog

STARLINK-1134

NORAD 45048 · 2020-006E

PAYLOAD ACTIVE UNKNOWN

§ Identity

Operator
Country
US
Launch date
2020-01-29
Launch site
AFETR
Launch vehicle
Mass (kg)
RCS (m²)

Purposes: comms

External: N2YO · Heavens-Above · Gunter

§ Orbital elements

Epoch: 2026-09-20T00:32:28.339872Z

Period
91.75 min
Inclination
53.0195°
Eccentricity
0.0005058
Mean motion
15.69553210 rev/d
Perigee alt
356.8 km
Apogee alt
363.6 km
Semi-major
6,738.3 km
B*
3.7241e-4
RAAN
14.2800°
Arg perigee
68.2417°
Mean anomaly
291.9137°
Rev number
36,743

§ Raw data

STARLINK-11341 45048U 20006E   26263.02255023  .00044506  00000+0  37241-3 0  99952 45048  53.0195  14.2800 0005058  68.2417 291.9137 15.69553210367439

JSON: /api/v1/satellites/45048 · /tle

For live sub-satellite position, see the globe view (requires WebGL).

§ Visibility from observer

Set your observer location to see the next 7 days of passes ≥ 10°. The values pass through the URL so the page stays shareable.

No JS? Fill the form by hand. The geolocation button needs JavaScript.